This is the latest recevied weather packets stored in our database for station/object K0SDS. If no packets are shown the sender has not sent any weather packets the latest 10 day(s).
| Time | Temp. | Humidity | Pressure | Rain* | Wind** | Luminosity | Snow |
|---|---|---|---|---|---|---|---|
| 1777489307 | 15.56° C | 55% | 1019.7 hPa | 0 mm | - | 453 W/m² | - |
| 1777489004 | 16.11° C | 56% | 1019.9 hPa | 0 mm | - | 477 W/m² | - |
| 1777488701 | 15.56° C | 54% | 1019.7 hPa | 0 mm | - | 507 W/m² | - |
| 1777488399 | 15.56° C | 54% | 1019.8 hPa | 0 mm | - | 393 W/m² | - |
| 1777488097 | 15.56° C | 53% | 1020 hPa | 0 mm | - | 522 W/m² | - |
| 1777487794 | 15.56° C | 52% | 1019.9 hPa | 0 mm | - | 459 W/m² | - |
| 1777487492 | 15.56° C | 55% | 1019.9 hPa | 0 mm | - | 392 W/m² | - |
| 1777487189 | 15° C | 58% | 1020 hPa | 0 mm | - | 438 W/m² | - |
| 1777486885 | 15.56° C | 60% | 1019.9 hPa | 0 mm | - | 397 W/m² | - |
| 1777486582 | 15.56° C | 58% | 1020.1 hPa | 0 mm | - | 388 W/m² | - |
| 1777486280 | 16.11° C | 55% | 1020.1 hPa | 0 mm | - | 326 W/m² | - |
| 1777485977 | 16.67° C | 55% | 1019.9 hPa | 0 mm | - | 358 W/m² | - |
| 1777485674 | 16.11° C | 57% | 1020.3 hPa | 0 mm | - | 757 W/m² | - |
| 1777485369 | 16.11° C | 57% | 1020.3 hPa | 0 mm | - | 801 W/m² | - |
| 1777485065 | 15.56° C | 55% | 1020.4 hPa | 0 mm | - | 800 W/m² | - |
| 1777484763 | 16.11° C | 57% | 1020.6 hPa | 0 mm | - | 517 W/m² | - |
| 1777484458 | 15.56° C | 60% | 1020.4 hPa | 0 mm | - | 650 W/m² | - |
| 1777484156 | 15.56° C | 59% | 1020.9 hPa | 0 mm | - | 746 W/m² | - |
| 1777483851 | 15.56° C | 59% | 1021 hPa | 0 mm | - | 747 W/m² | - |
| 1777483548 | 16.11° C | 60% | 1021.2 hPa | 0 mm | - | 607 W/m² | - |
| 1777483243 | 15.56° C | 60% | 1021.1 hPa | 0 mm | - | 780 W/m² | - |
| 1777482940 | 15.56° C | 62% | 1021 hPa | 0 mm | - | 434 W/m² | - |
| 1777482636 | 15° C | 63% | 1021.1 hPa | 0 mm | - | 554 W/m² | - |
| 1777482333 | 15° C | 63% | 1021.2 hPa | 0 mm | - | 638 W/m² | - |
| 1777482030 | 15.56° C | 65% | 1021 hPa | 0 mm | - | 727 W/m² | - |
* Rain latest hour (hover to see other rain measurements)
** Current wind speed in m/s (hover to see current wind gust speed)